Showing default

BEIDOU 3M4, 43108

Orbit data source: Space-Track

BEIDOU 3M4, 43108 is a payload satellite owned by CNSA (CN) in MEO that was launched on Thu, 11 Jan 2018 UTC via a CHANG ZHENG 3B/YZ-1 launch vehicle from the Xichang Space Center, China (XSC). Payload-class satellites include a variety of spacecraft equipped with specific instruments for various scientific and technological missions. These include communications satellites like Starlink; space stations such as the ISS; scientific satellites like the Hubble; Earth observation satellites from companies like Planet Labs, Umbra, and HawkEye 360; GPS; miniature CubeSats for education and research; and military/defense satellites.

Loading next visibility...
Identifier
43108, 2018-003B
Orbit
MEO
Country
Flag of CNCN / PRC
Related business
Manufacturer
SECM
Mission
Operational Defense Navigation
Bus & Motor
BD-3M2, Unknown motor
Mass
1,014 kg wet, ~850 kg dry
Launch date (UTC)
2018-01-11 (8 years ago)
Launch vehicle
CHANG ZHENG 3B/YZ-1
Launch site
Xichang Space Center, China (XSC)
Object type
Payload
Rocket body
Debris
Shape & HBR
Box + 2 Pan, 5.0 m
Radar Cross Section
8.984 m², Large (>1 m²)

Expand to show TLE details & history
Last TLE update: 2 days ago

TLE from 2 days ago
0 BEIDOU 3M4
1 43108U 18003B   26171.51700953 -.00000093  00000-0  00000+0 0  9997
2 43108  54.3172 302.1809 0002615 260.4330  99.5328  1.86231030 57423
Epoch: 2026-06-20T12:24Z
TLE epoch observation values (Epoch: 2026-06-20T12:24:29.623Z)
Latitude
0.00001°
Longitude
-152.68986°
Altitude
21,529.511 km
Speed
3.779 km/s
True Right ascension
20h 08m 39s
True Declination
0° 00' 00"
Sunlit
Object was in daylight at epoch
Visualization orbit readout
Latitude
Unknown
Longitude
Unknown
Altitude
Unknown
Speed
Unknown
Apparent Right ascension
Unknown
Apparent Declination
Unknown
Sunlit
N/A
Visualization observer readout
Local Sidereal Time
21:50:03
Azimuth
Unknown
Elevation
Unknown
Doppler factor
Unknown
Orbital elements
Apogee altitude
21,535.379 km
Perigee altitude
21,520.785 km
Semi-major axis
27,906.219 km
Eccentricity
0.00026
Inclination
54.3172°
RAAN
302.1809°
Arg. of periapsis
260.433°
True anomaly
99.56235°
Mean anomaly
99.5328°
Eccentric anomaly
99.54758°
Mean motion
0.46558 °/min
Orbital period
773.23 mins
BSTAR
0
Loading maneuver chart data...
Computing Atmospheric mass density...
Loading historical data...
Loading historical data...
Loading historical data...
Loading historical data...
Loading historical data...
Loading historical data...
Loading historical data...
Other satellites on launch #3 in the year 2018 (2018-01-11 UTC)

Documentation

Showing up to 5 results
|